Torna al catalogo

STARLINK-30368

AttivoComunicazioniVLEO
NORAD 57752·PAYLOAD·🇺🇸 United States

Lanciato Sep 1, 2023 da Cape Canaveral Space Force Station

Loading…

Prossimi Passaggi (prossime 24 ore)

TLE

AggiornatoSource: CelesTrak SupGP

Epoca: Sep 14, 2026, 22:05 UTC

1 57752C 23131W   26257.92062500 -.00021619  00000+0 -78302-3 0  2572
2 57752  43.0023 184.0065 0001300 270.6327  98.1608 15.27590281    18

Traccia STARLINK-30368 in tempo reale con AllMySat

Download on the App Store